STARLINK-34894

Last updated on Mon Oct 20 2025 00:02:06 GMT+0000 (Coordinated Universal Time)

1 65753U 25216V 25292.23391627 -.00254490 00000+0 -47813-2 0 9995 2 65753 53.1591 272.2366 0001438 96.4835 263.6337 15.48930503 4823
UTC large
Height (km)
Speed (km/s)
/
Latitude / Longitude
Inclination (degrees)
Orbital Period (minutes)
Azimuth
Elevation
Range (km)
Doppler Factor

Next 0 passes for location: London (51.5072 / 0.1276)

Sorry there are no passes over London.